contact:dominique.lefevre@mio.osupytheas.fr, maurice.libes@osupytheas.fr, didier.mallarino@osupytheas.fr
Project:EMSO http://www.emso-fr.org/EMSO-France
Depth: 2436.0 m
Title:EMSO Ligure Ouest : Data MII capteur MICROCAT
DateTime_Computer,Latitude,Longitude,Temperature,Conductivity,Pressure,DateTime_Instrument
DateTime_Computer,Latitude,Longitude,degC,S m-1,dbar,DateTime_Instrument
2020-11-03T00:00:04Z,42.805,6.029,13.3006,4.60019,2470.171,2020-11-03T02:01:00Z
2020-11-03T00:03:07Z,42.805,6.029,13.3017,4.60024,2470.147,2020-11-03T02:04:03Z
2020-11-03T00:06:10Z,42.805,6.029,13.2993,4.60016,2470.156,2020-11-03T02:07:06Z
2020-11-03T00:09:13Z,42.805,6.029,13.3004,4.60006,2470.171,2020-11-03T02:10:09Z
2020-11-03T00:12:17Z,42.805,6.029,13.3002,4.60007,2470.147,2020-11-03T02:13:12Z
2020-11-03T00:15:20Z,42.805,6.029,13.2991,4.60014,2470.156,2020-11-03T02:16:15Z
2020-11-03T00:18:23Z,42.805,6.029,13.3002,4.59999,2470.147,2020-11-03T02:19:18Z
2020-11-03T00:21:26Z,42.805,6.029,13.3012,4.60013,2470.11,2020-11-03T02:22:22Z
2020-11-03T00:24:29Z,42.805,6.029,13.3015,4.60026,2470.147,2020-11-03T02:25:25Z
2020-11-03T00:27:32Z,42.805,6.029,13.3006,4.60028,2470.147,2020-11-03T02:28:28Z
2020-11-03T00:30:35Z,42.805,6.029,13.3011,4.60029,2470.171,2020-11-03T02:31:31Z
2020-11-03T00:33:38Z,42.805,6.029,13.3015,4.60019,2470.133,2020-11-03T02:34:34Z
2020-11-03T00:36:42Z,42.805,6.029,13.3018,4.60041,2470.171,2020-11-03T02:37:37Z
2020-11-03T00:39:45Z,42.805,6.029,13.3010,4.60033,2470.133,2020-11-03T02:40:40Z
2020-11-03T00:42:48Z,42.805,6.029,13.3003,4.59994,2470.133,2020-11-03T02:43:43Z
2020-11-03T00:45:51Z,42.805,6.029,13.2992,4.60009,2470.11,2020-11-03T02:46:46Z
2020-11-03T00:48:54Z,42.805,6.029,13.2996,4.59998,2470.1,2020-11-03T02:49:50Z
2020-11-03T00:51:57Z,42.805,6.029,13.2996,4.59994,2470.133,2020-11-03T02:52:53Z
2020-11-03T00:55:00Z,42.805,6.029,13.2996,4.59996,2470.11,2020-11-03T02:55:56Z
2020-11-03T00:58:03Z,42.805,6.029,13.2991,4.59996,2470.1,2020-11-03T02:58:59Z
2020-11-03T01:01:06Z,42.805,6.029,13.3008,4.60003,2470.11,2020-11-03T03:02:02Z
2020-11-03T01:04:10Z,42.805,6.029,13.3001,4.59993,2470.1,2020-11-03T03:05:05Z
2020-11-03T01:07:13Z,42.805,6.029,13.2996,4.59987,2470.11,2020-11-03T03:08:08Z
2020-11-03T01:10:16Z,42.805,6.029,13.2998,4.60010,2470.124,2020-11-03T03:11:11Z
2020-11-03T01:13:19Z,42.805,6.029,13.2984,4.60009,2470.1,2020-11-03T03:14:15Z
2020-11-03T01:16:22Z,42.805,6.029,13.2993,4.59990,2470.11,2020-11-03T03:17:18Z
2020-11-03T01:19:25Z,42.805,6.029,13.2993,4.59998,2470.11,2020-11-03T03:20:21Z
2020-11-03T01:22:28Z,42.805,6.029,13.3004,4.60008,2470.11,2020-11-03T03:23:24Z
2020-11-03T01:25:31Z,42.805,6.029,13.3012,4.60020,2470.11,2020-11-03T03:26:27Z
2020-11-03T01:28:35Z,42.805,6.029,13.3006,4.60001,2470.124,2020-11-03T03:29:30Z
2020-11-03T01:31:38Z,42.805,6.029,13.2987,4.60009,2470.124,2020-11-03T03:32:33Z
2020-11-03T01:34:41Z,42.805,6.029,13.2989,4.59994,2470.133,2020-11-03T03:35:36Z
2020-11-03T01:37:44Z,42.805,6.029,13.2998,4.60003,2470.1,2020-11-03T03:38:39Z
2020-11-03T01:40:47Z,42.805,6.029,13.2987,4.59992,2470.1,2020-11-03T03:41:43Z
2020-11-03T01:43:50Z,42.805,6.029,13.2995,4.60014,2470.124,2020-11-03T03:44:46Z
2020-11-03T01:46:53Z,42.805,6.029,13.3003,4.59991,2470.11,2020-11-03T03:47:49Z
2020-11-03T01:49:56Z,42.805,6.029,13.3009,4.60005,2470.1,2020-11-03T03:50:52Z
2020-11-03T01:52:59Z,42.805,6.029,13.3000,4.60000,2470.1,2020-11-03T03:53:55Z
2020-11-03T01:56:03Z,42.805,6.029,13.2996,4.60001,2470.133,2020-11-03T03:56:58Z
2020-11-03T01:59:06Z,42.805,6.029,13.2997,4.60009,2470.133,2020-11-03T04:00:01Z
2020-11-03T02:02:09Z,42.805,6.029,13.3004,4.60004,2470.124,2020-11-03T04:03:04Z
2020-11-03T02:05:12Z,42.805,6.029,13.3006,4.60004,2470.087,2020-11-03T04:06:07Z
2020-11-03T02:08:15Z,42.805,6.029,13.3006,4.60007,2470.077,2020-11-03T04:09:11Z
2020-11-03T02:11:18Z,42.805,6.029,13.3009,4.60006,2470.11,2020-11-03T04:12:14Z
2020-11-03T02:14:21Z,42.805,6.029,13.3024,4.60007,2470.133,2020-11-03T04:15:17Z
2020-11-03T02:17:24Z,42.805,6.029,13.3006,4.60016,2470.124,2020-11-03T04:18:20Z
2020-11-03T02:20:28Z,42.805,6.029,13.3007,4.60016,2470.11,2020-11-03T04:21:23Z
2020-11-03T02:23:31Z,42.805,6.029,13.3003,4.59997,2470.11,2020-11-03T04:24:26Z
2020-11-03T02:26:34Z,42.805,6.029,13.2998,4.59987,2470.133,2020-11-03T04:27:29Z
2020-11-03T02:29:37Z,42.805,6.029,13.3014,4.59995,2470.1,2020-11-03T04:30:32Z
2020-11-03T02:32:40Z,42.805,6.029,13.2991,4.60004,2470.11,2020-11-03T04:33:35Z
2020-11-03T02:35:43Z,42.805,6.029,13.3004,4.60004,2470.1,2020-11-03T04:36:39Z
2020-11-03T02:38:46Z,42.805,6.029,13.2998,4.60016,2470.124,2020-11-03T04:39:42Z
2020-11-03T02:41:49Z,42.805,6.029,13.3004,4.60001,2470.124,2020-11-03T04:42:45Z
2020-11-03T02:44:52Z,42.805,6.029,13.3003,4.59994,2470.11,2020-11-03T04:45:48Z
2020-11-03T02:47:56Z,42.805,6.029,13.2996,4.60005,2470.087,2020-11-03T04:48:51Z
2020-11-03T02:50:59Z,42.805,6.029,13.2990,4.60014,2470.11,2020-11-03T04:51:54Z
2020-11-03T02:54:02Z,42.805,6.029,13.2998,4.60005,2470.087,2020-11-03T04:54:57Z
2020-11-03T02:57:05Z,42.805,6.029,13.2986,4.60001,2470.087,2020-11-03T04:58:00Z
2020-11-03T03:00:08Z,42.805,6.029,13.3009,4.60011,2470.124,2020-11-03T05:01:04Z
2020-11-03T03:03:11Z,42.805,6.029,13.3006,4.60001,2470.124,2020-11-03T05:04:07Z
2020-11-03T03:06:14Z,42.805,6.029,13.2988,4.60006,2470.11,2020-11-03T05:07:10Z
2020-11-03T03:09:17Z,42.805,6.029,13.2998,4.60009,2470.124,2020-11-03T05:10:13Z
2020-11-03T03:12:20Z,42.805,6.029,13.2993,4.60001,2470.124,2020-11-03T05:13:16Z
2020-11-03T03:15:24Z,42.805,6.029,13.3011,4.60003,2470.11,2020-11-03T05:16:19Z
2020-11-03T03:18:27Z,42.805,6.029,13.3009,4.60003,2470.077,2020-11-03T05:19:22Z
2020-11-03T03:21:30Z,42.805,6.029,13.2995,4.60000,2470.124,2020-11-03T05:22:25Z
2020-11-03T03:24:33Z,42.805,6.029,13.3011,4.60005,2470.124,2020-11-03T05:25:28Z
2020-11-03T03:27:36Z,42.805,6.029,13.3017,4.60029,2470.087,2020-11-03T05:28:32Z
2020-11-03T03:30:39Z,42.805,6.029,13.3009,4.60003,2470.063,2020-11-03T05:31:35Z
2020-11-03T03:33:42Z,42.805,6.029,13.2997,4.60006,2470.124,2020-11-03T05:34:38Z
2020-11-03T03:36:45Z,42.805,6.029,13.3002,4.59996,2470.133,2020-11-03T05:37:41Z
2020-11-03T03:39:49Z,42.805,6.029,13.3000,4.60016,2470.1,2020-11-03T05:40:44Z
2020-11-03T03:42:52Z,42.805,6.029,13.2999,4.60003,2470.087,2020-11-03T05:43:47Z
2020-11-03T03:45:55Z,42.805,6.029,13.3007,4.60007,2470.124,2020-11-03T05:46:50Z
2020-11-03T03:48:58Z,42.805,6.029,13.3015,4.60020,2470.133,2020-11-03T05:49:53Z
2020-11-03T03:52:01Z,42.805,6.029,13.3020,4.60005,2470.11,2020-11-03T05:52:57Z
2020-11-03T03:55:04Z,42.805,6.029,13.3016,4.60006,2470.087,2020-11-03T05:56:00Z
2020-11-03T03:58:07Z,42.805,6.029,13.3001,4.60009,2470.147,2020-11-03T05:59:03Z
2020-11-03T04:01:10Z,42.805,6.029,13.3012,4.60005,2470.1,2020-11-03T06:02:06Z
2020-11-03T04:04:13Z,42.805,6.029,13.3002,4.60004,2470.11,2020-11-03T06:05:09Z
2020-11-03T04:07:17Z,42.805,6.029,13.2998,4.59995,2470.147,2020-11-03T06:08:12Z
2020-11-03T04:10:20Z,42.805,6.029,13.3025,4.59998,2470.133,2020-11-03T06:11:15Z
2020-11-03T04:13:23Z,42.805,6.029,13.3015,4.60006,2470.124,2020-11-03T06:14:18Z
2020-11-03T04:16:26Z,42.805,6.029,13.3011,4.60006,2470.156,2020-11-03T06:17:21Z
2020-11-03T04:19:29Z,42.805,6.029,13.3017,4.60009,2470.124,2020-11-03T06:20:25Z
2020-11-03T04:22:32Z,42.805,6.029,13.2999,4.60011,2470.147,2020-11-03T06:23:28Z
2020-11-03T04:25:35Z,42.805,6.029,13.3013,4.60016,2470.133,2020-11-03T06:26:31Z
2020-11-03T04:28:38Z,42.805,6.029,13.3014,4.60003,2470.171,2020-11-03T06:29:34Z
2020-11-03T04:31:42Z,42.805,6.029,13.3005,4.60014,2470.133,2020-11-03T06:32:37Z
2020-11-03T04:34:45Z,42.805,6.029,13.2998,4.60010,2470.124,2020-11-03T06:35:40Z
2020-11-03T04:37:48Z,42.805,6.029,13.3009,4.59999,2470.133,2020-11-03T06:38:43Z
2020-11-03T04:40:51Z,42.805,6.029,13.3013,4.60001,2470.171,2020-11-03T06:41:46Z
2020-11-03T04:43:54Z,42.805,6.029,13.2998,4.60008,2470.171,2020-11-03T06:44:50Z
2020-11-03T04:46:57Z,42.805,6.029,13.3003,4.60009,2470.147,2020-11-03T06:47:53Z
2020-11-03T04:50:00Z,42.805,6.029,13.3014,4.60001,2470.156,2020-11-03T06:50:56Z
2020-11-03T04:53:03Z,42.805,6.029,13.3025,4.60007,2470.156,2020-11-03T06:53:59Z
2020-11-03T04:56:06Z,42.805,6.029,13.3012,4.60015,2470.194,2020-11-03T06:57:02Z
2020-11-03T04:59:10Z,42.805,6.029,13.3006,4.59996,2470.203,2020-11-03T07:00:05Z
2020-11-03T05:02:13Z,42.805,6.029,13.3031,4.60002,2470.18,2020-11-03T07:03:08Z
2020-11-03T05:05:16Z,42.805,6.029,13.3014,4.60020,2470.156,2020-11-03T07:06:11Z
2020-11-03T05:08:19Z,42.805,6.029,13.3027,4.60017,2470.156,2020-11-03T07:09:14Z
2020-11-03T05:11:22Z,42.805,6.029,13.3016,4.60019,2470.171,2020-11-03T07:12:18Z
2020-11-03T05:14:25Z,42.805,6.029,13.3024,4.60016,2470.18,2020-11-03T07:15:21Z
2020-11-03T05:17:28Z,42.805,6.029,13.3020,4.60014,2470.156,2020-11-03T07:18:24Z
2020-11-03T05:20:31Z,42.805,6.029,13.3016,4.60019,2470.217,2020-11-03T07:21:27Z
2020-11-03T05:23:34Z,42.805,6.029,13.3019,4.60010,2470.217,2020-11-03T07:24:30Z
2020-11-03T05:26:38Z,42.805,6.029,13.3024,4.60007,2470.18,2020-11-03T07:27:33Z
2020-11-03T05:29:41Z,42.805,6.029,13.3014,4.60006,2470.18,2020-11-03T07:30:36Z
2020-11-03T05:32:44Z,42.805,6.029,13.3006,4.60006,2470.194,2020-11-03T07:33:39Z
2020-11-03T05:35:47Z,42.805,6.029,13.3010,4.60009,2470.18,2020-11-03T07:36:43Z
2020-11-03T05:38:50Z,42.805,6.029,13.3019,4.60018,2470.18,2020-11-03T07:39:46Z
2020-11-03T05:41:53Z,42.805,6.029,13.3009,4.60011,2470.194,2020-11-03T07:42:49Z
2020-11-03T05:44:56Z,42.805,6.029,13.3011,4.60016,2470.217,2020-11-03T07:45:52Z
2020-11-03T05:47:59Z,42.805,6.029,13.3011,4.60013,2470.194,2020-11-03T07:48:55Z
2020-11-03T05:51:03Z,42.805,6.029,13.3014,4.60016,2470.203,2020-11-03T07:51:58Z
2020-11-03T05:54:06Z,42.805,6.029,13.3019,4.60013,2470.203,2020-11-03T07:55:01Z
2020-11-03T05:57:09Z,42.805,6.029,13.3019,4.60033,2470.203,2020-11-03T07:58:04Z
2020-11-03T06:00:12Z,42.805,6.029,13.3029,4.60028,2470.24,2020-11-03T08:01:07Z
2020-11-03T06:03:15Z,42.805,6.029,13.3015,4.60026,2470.18,2020-11-03T08:04:11Z
2020-11-03T06:06:18Z,42.805,6.029,13.3011,4.60026,2470.203,2020-11-03T08:07:14Z
2020-11-03T06:09:21Z,42.805,6.029,13.3021,4.60009,2470.213,2020-11-03T08:10:17Z
2020-11-03T06:12:24Z,42.805,6.029,13.3011,4.60014,2470.24,2020-11-03T08:13:20Z
2020-11-03T06:15:27Z,42.805,6.029,13.3011,4.60010,2470.24,2020-11-03T08:16:23Z
2020-11-03T06:18:31Z,42.805,6.029,13.3019,4.60023,2470.227,2020-11-03T08:19:26Z
2020-11-03T06:21:34Z,42.805,6.029,13.3029,4.60016,2470.227,2020-11-03T08:22:29Z
2020-11-03T06:24:37Z,42.805,6.029,13.3025,4.60008,2470.203,2020-11-03T08:25:32Z
2020-11-03T06:27:40Z,42.805,6.029,13.3015,4.60003,2470.227,2020-11-03T08:28:36Z
2020-11-03T06:30:43Z,42.805,6.029,13.3014,4.60009,2470.25,2020-11-03T08:31:39Z
2020-11-03T06:33:46Z,42.805,6.029,13.3047,4.60010,2470.24,2020-11-03T08:34:42Z
2020-11-03T06:36:49Z,42.805,6.029,13.3014,4.60024,2470.264,2020-11-03T08:37:45Z
2020-11-03T06:39:52Z,42.805,6.029,13.3025,4.60016,2470.25,2020-11-03T08:40:48Z
2020-11-03T06:42:56Z,42.805,6.029,13.3033,4.60014,2470.287,2020-11-03T08:43:51Z
2020-11-03T06:45:59Z,42.805,6.029,13.3011,4.60014,2470.25,2020-11-03T08:46:54Z
2020-11-03T06:49:02Z,42.805,6.029,13.3036,4.60028,2470.273,2020-11-03T08:49:57Z
2020-11-03T06:52:05Z,42.805,6.029,13.3026,4.60047,2470.264,2020-11-03T08:53:00Z
2020-11-03T06:55:08Z,42.805,6.029,13.3025,4.60026,2470.264,2020-11-03T08:56:04Z
2020-11-03T06:58:11Z,42.805,6.029,13.3034,4.60014,2470.25,2020-11-03T08:59:07Z
2020-11-03T07:01:14Z,42.805,6.029,13.3030,4.60018,2470.273,2020-11-03T09:02:10Z
2020-11-03T07:04:17Z,42.805,6.029,13.3015,4.60016,2470.273,2020-11-03T09:05:13Z
2020-11-03T07:07:20Z,42.805,6.029,13.3019,4.60017,2470.273,2020-11-03T09:08:16Z
2020-11-03T07:10:24Z,42.805,6.029,13.3021,4.60017,2470.31,2020-11-03T09:11:19Z
2020-11-03T07:13:27Z,42.805,6.029,13.3032,4.60013,2470.287,2020-11-03T09:14:22Z
2020-11-03T07:16:30Z,42.805,6.029,13.2983,4.60029,2470.297,2020-11-03T09:17:25Z
2020-11-03T07:19:33Z,42.805,6.029,13.2983,4.60035,2470.273,2020-11-03T09:20:29Z
2020-11-03T07:22:36Z,42.805,6.029,13.2972,4.60003,2470.31,2020-11-03T09:23:32Z
2020-11-03T07:25:39Z,42.805,6.029,13.2974,4.60006,2470.273,2020-11-03T09:26:35Z
2020-11-03T07:28:42Z,42.805,6.029,13.3050,4.60031,2470.297,2020-11-03T09:29:38Z
2020-11-03T07:31:45Z,42.805,6.029,13.3005,4.60017,2470.31,2020-11-03T09:32:41Z
2020-11-03T07:34:49Z,42.805,6.029,13.3002,4.60021,2470.297,2020-11-03T09:35:44Z
2020-11-03T07:37:52Z,42.805,6.029,13.2984,4.60001,2470.31,2020-11-03T09:38:47Z
2020-11-03T07:40:55Z,42.805,6.029,13.3037,4.60031,2470.31,2020-11-03T09:41:50Z
2020-11-03T07:43:58Z,42.805,6.029,13.3024,4.60029,2470.357,2020-11-03T09:44:53Z
2020-11-03T07:47:01Z,42.805,6.029,13.3026,4.60040,2470.343,2020-11-03T09:47:57Z
2020-11-03T07:50:04Z,42.805,6.029,13.3027,4.60028,2470.297,2020-11-03T09:51:00Z
2020-11-03T07:53:07Z,42.805,6.029,13.3029,4.60022,2470.297,2020-11-03T09:54:03Z
2020-11-03T07:56:10Z,42.805,6.029,13.3034,4.60020,2470.32,2020-11-03T09:57:06Z
2020-11-03T07:59:13Z,42.805,6.029,13.2994,4.60031,2470.32,2020-11-03T10:00:09Z
2020-11-03T08:02:17Z,42.805,6.029,13.2982,4.60024,2470.334,2020-11-03T10:03:12Z
2020-11-03T08:05:20Z,42.805,6.029,13.2982,4.60011,2470.32,2020-11-03T10:06:15Z
2020-11-03T08:08:23Z,42.805,6.029,13.3005,4.60031,2470.32,2020-11-03T10:09:18Z
2020-11-03T08:11:26Z,42.805,6.029,13.3041,4.60054,2470.334,2020-11-03T10:12:21Z
2020-11-03T08:14:29Z,42.805,6.029,13.3026,4.60031,2470.32,2020-11-03T10:15:25Z
2020-11-03T08:17:32Z,42.805,6.029,13.2992,4.60028,2470.357,2020-11-03T10:18:28Z
2020-11-03T08:20:35Z,42.805,6.029,13.2974,4.60017,2470.32,2020-11-03T10:21:31Z
2020-11-03T08:23:38Z,42.805,6.029,13.2980,4.60014,2470.32,2020-11-03T10:24:34Z
2020-11-03T08:26:42Z,42.805,6.029,13.2979,4.60011,2470.31,2020-11-03T10:27:37Z
2020-11-03T08:29:45Z,42.805,6.029,13.3006,4.60021,2470.32,2020-11-03T10:30:40Z
2020-11-03T08:32:48Z,42.805,6.029,13.2979,4.60049,2470.32,2020-11-03T10:33:43Z
2020-11-03T08:35:51Z,42.805,6.029,13.3013,4.60031,2470.32,2020-11-03T10:36:46Z
2020-11-03T08:38:54Z,42.805,6.029,13.3002,4.60029,2470.343,2020-11-03T10:39:50Z
2020-11-03T08:41:57Z,42.805,6.029,13.2985,4.60048,2470.32,2020-11-03T10:42:53Z
2020-11-03T08:45:00Z,42.805,6.029,13.2976,4.60031,2470.32,2020-11-03T10:45:56Z
2020-11-03T08:48:03Z,42.805,6.029,13.2983,4.60035,2470.31,2020-11-03T10:48:59Z
2020-11-03T08:51:07Z,42.805,6.029,13.2975,4.60042,2470.297,2020-11-03T10:52:02Z
2020-11-03T08:54:10Z,42.805,6.029,13.2974,4.60011,2470.334,2020-11-03T10:55:05Z
2020-11-03T08:57:13Z,42.805,6.029,13.3039,4.60012,2470.334,2020-11-03T10:58:08Z
2020-11-03T09:00:16Z,42.805,6.029,13.2981,4.60029,2470.31,2020-11-03T11:01:11Z
2020-11-03T09:03:19Z,42.805,6.029,13.2977,4.60015,2470.287,2020-11-03T11:04:15Z
2020-11-03T09:06:22Z,42.805,6.029,13.2981,4.60025,2470.297,2020-11-03T11:07:18Z
2020-11-03T09:09:25Z,42.805,6.029,13.2983,4.60017,2470.334,2020-11-03T11:10:21Z
2020-11-03T09:12:28Z,42.805,6.029,13.3015,4.60035,2470.334,2020-11-03T11:13:24Z
2020-11-03T09:15:31Z,42.805,6.029,13.3035,4.60046,2470.334,2020-11-03T11:16:27Z
2020-11-03T09:18:35Z,42.805,6.029,13.3039,4.60026,2470.334,2020-11-03T11:19:30Z
2020-11-03T09:21:38Z,42.805,6.029,13.3019,4.60020,2470.31,2020-11-03T11:22:33Z
2020-11-03T09:24:41Z,42.805,6.029,13.3027,4.60043,2470.334,2020-11-03T11:25:36Z
2020-11-03T09:27:44Z,42.805,6.029,13.3030,4.60089,2470.31,2020-11-03T11:28:40Z
2020-11-03T09:30:47Z,42.805,6.029,13.3016,4.60066,2470.31,2020-11-03T11:31:43Z
2020-11-03T09:33:50Z,42.805,6.029,13.3019,4.60084,2470.297,2020-11-03T11:34:46Z
2020-11-03T09:36:53Z,42.805,6.029,13.2978,4.60069,2470.31,2020-11-03T11:37:49Z
2020-11-03T09:39:56Z,42.805,6.029,13.3026,4.60057,2470.32,2020-11-03T11:40:52Z
2020-11-03T09:43:00Z,42.805,6.029,13.2993,4.60079,2470.287,2020-11-03T11:43:55Z
2020-11-03T09:46:03Z,42.805,6.029,13.2987,4.60044,2470.273,2020-11-03T11:46:58Z
2020-11-03T09:49:06Z,42.805,6.029,13.2997,4.60059,2470.31,2020-11-03T11:50:01Z
2020-11-03T09:52:09Z,42.805,6.029,13.3019,4.60052,2470.343,2020-11-03T11:53:05Z
2020-11-03T09:55:12Z,42.805,6.029,13.3020,4.60025,2470.273,2020-11-03T11:56:08Z
2020-11-03T09:58:15Z,42.805,6.029,13.3039,4.60049,2470.264,2020-11-03T11:59:11Z
2020-11-03T10:01:18Z,42.805,6.029,13.3046,4.60052,2470.31,2020-11-03T12:02:14Z
2020-11-03T10:04:21Z,42.805,6.029,13.3060,4.60042,2470.287,2020-11-03T12:05:17Z
2020-11-03T10:07:25Z,42.805,6.029,13.3034,4.60035,2470.31,2020-11-03T12:08:20Z
2020-11-03T10:10:28Z,42.805,6.029,13.3051,4.60052,2470.31,2020-11-03T12:11:23Z
2020-11-03T10:13:31Z,42.805,6.029,13.3062,4.60046,2470.31,2020-11-03T12:14:26Z
2020-11-03T10:16:34Z,42.805,6.029,13.3067,4.60044,2470.32,2020-11-03T12:17:29Z
2020-11-03T10:19:37Z,42.805,6.029,13.3061,4.60038,2470.31,2020-11-03T12:20:33Z
2020-11-03T10:22:40Z,42.805,6.029,13.3063,4.60029,2470.31,2020-11-03T12:23:36Z
2020-11-03T10:25:43Z,42.805,6.029,13.3067,4.60049,2470.287,2020-11-03T12:26:39Z
2020-11-03T10:28:46Z,42.805,6.029,13.3058,4.60049,2470.32,2020-11-03T12:29:42Z
2020-11-03T10:31:50Z,42.805,6.029,13.3063,4.60026,2470.25,2020-11-03T12:32:45Z
2020-11-03T10:34:53Z,42.805,6.029,13.3063,4.60021,2470.287,2020-11-03T12:35:48Z
2020-11-03T10:37:56Z,42.805,6.029,13.3050,4.60029,2470.25,2020-11-03T12:38:51Z
2020-11-03T10:40:59Z,42.805,6.029,13.3046,4.60006,2470.25,2020-11-03T12:41:54Z
2020-11-03T10:44:02Z,42.805,6.029,13.3044,4.60003,2470.287,2020-11-03T12:44:58Z
2020-11-03T10:47:05Z,42.805,6.029,13.3027,4.60004,2470.264,2020-11-03T12:48:01Z
2020-11-03T10:50:08Z,42.805,6.029,13.3051,4.60023,2470.297,2020-11-03T12:51:04Z
2020-11-03T10:53:11Z,42.805,6.029,13.3061,4.60003,2470.287,2020-11-03T12:54:07Z
2020-11-03T10:56:15Z,42.805,6.029,13.3031,4.60014,2470.287,2020-11-03T12:57:10Z
2020-11-03T10:59:18Z,42.805,6.029,13.3029,4.60043,2470.31,2020-11-03T13:00:13Z
2020-11-03T11:02:21Z,42.805,6.029,13.3020,4.60015,2470.287,2020-11-03T13:03:16Z
2020-11-03T11:05:24Z,42.805,6.029,13.3021,4.60029,2470.264,2020-11-03T13:06:19Z
2020-11-03T11:08:27Z,42.805,6.029,13.2998,4.60011,2470.273,2020-11-03T13:09:23Z
2020-11-03T11:11:30Z,42.805,6.029,13.3026,4.60020,2470.24,2020-11-03T13:12:26Z
2020-11-03T11:14:33Z,42.805,6.029,13.3054,4.60014,2470.264,2020-11-03T13:15:29Z
2020-11-03T11:17:36Z,42.805,6.029,13.3071,4.60018,2470.25,2020-11-03T13:18:32Z
2020-11-03T11:20:39Z,42.805,6.029,13.3061,4.60036,2470.287,2020-11-03T13:21:35Z
2020-11-03T11:23:43Z,42.805,6.029,13.3012,4.60053,2470.24,2020-11-03T13:24:38Z
2020-11-03T11:26:46Z,42.805,6.029,13.3021,4.60048,2470.24,2020-11-03T13:27:41Z
2020-11-03T11:29:49Z,42.805,6.029,13.3041,4.60043,2470.227,2020-11-03T13:30:44Z
2020-11-03T11:32:52Z,42.805,6.029,13.3031,4.60016,2470.203,2020-11-03T13:33:48Z
2020-11-03T11:35:55Z,42.805,6.029,13.3012,4.60044,2470.24,2020-11-03T13:36:51Z
2020-11-03T11:38:58Z,42.805,6.029,13.3011,4.60027,2470.217,2020-11-03T13:39:54Z
2020-11-03T11:42:01Z,42.805,6.029,13.3020,4.60029,2470.264,2020-11-03T13:42:57Z
2020-11-03T11:45:04Z,42.805,6.029,13.3011,4.60070,2470.264,2020-11-03T13:46:00Z
2020-11-03T11:48:08Z,42.805,6.029,13.3000,4.60078,2470.217,2020-11-03T13:49:03Z
2020-11-03T11:51:11Z,42.805,6.029,13.3040,4.60073,2470.203,2020-11-03T13:52:06Z
2020-11-03T11:54:14Z,42.805,6.029,13.3047,4.60004,2470.227,2020-11-03T13:55:09Z
2020-11-03T11:57:17Z,42.805,6.029,13.3011,4.60024,2470.264,2020-11-03T13:58:12Z
2020-11-03T12:00:20Z,42.805,6.029,13.3000,4.60035,2470.24,2020-11-03T14:01:16Z
2020-11-03T12:03:23Z,42.805,6.029,13.3024,4.60010,2470.227,2020-11-03T14:04:19Z
2020-11-03T12:06:26Z,42.805,6.029,13.3002,4.60040,2470.217,2020-11-03T14:07:22Z
2020-11-03T12:09:29Z,42.805,6.029,13.2990,4.60064,2470.227,2020-11-03T14:10:25Z
2020-11-03T12:12:33Z,42.805,6.029,13.3024,4.60034,2470.227,2020-11-03T14:13:28Z
2020-11-03T12:15:36Z,42.805,6.029,13.3013,4.60059,2470.227,2020-11-03T14:16:31Z
2020-11-03T12:18:39Z,42.805,6.029,13.3014,4.60028,2470.217,2020-11-03T14:19:34Z
2020-11-03T12:21:42Z,42.805,6.029,13.2995,4.60039,2470.24,2020-11-03T14:22:37Z
2020-11-03T12:24:45Z,42.805,6.029,13.3002,4.60121,2470.156,2020-11-03T14:25:41Z
2020-11-03T12:27:48Z,42.805,6.029,13.3019,4.60084,2470.203,2020-11-03T14:28:44Z
2020-11-03T12:30:51Z,42.805,6.029,13.3024,4.60073,2470.227,2020-11-03T14:31:47Z
2020-11-03T12:33:54Z,42.805,6.029,13.3008,4.60050,2470.217,2020-11-03T14:34:50Z
2020-11-03T12:36:58Z,42.805,6.029,13.3024,4.60040,2470.18,2020-11-03T14:37:53Z
2020-11-03T12:40:01Z,42.805,6.029,13.3050,4.60009,2470.18,2020-11-03T14:40:56Z
2020-11-03T12:43:04Z,42.805,6.029,13.3034,4.60029,2470.217,2020-11-03T14:43:59Z
2020-11-03T12:46:07Z,42.805,6.029,13.2998,4.60057,2470.194,2020-11-03T14:47:02Z
2020-11-03T12:49:10Z,42.805,6.029,13.2993,4.60119,2470.203,2020-11-03T14:50:06Z
2020-11-03T12:52:13Z,42.805,6.029,13.3001,4.60114,2470.217,2020-11-03T14:53:09Z
2020-11-03T12:55:16Z,42.805,6.029,13.2998,4.60064,2470.254,2020-11-03T14:56:12Z
2020-11-03T12:58:19Z,42.805,6.029,13.3029,4.60057,2470.194,2020-11-03T14:59:15Z
2020-11-03T13:01:22Z,42.805,6.029,13.3006,4.60094,2470.203,2020-11-03T15:02:18Z
2020-11-03T13:04:26Z,42.805,6.029,13.2989,4.60091,2470.18,2020-11-03T15:05:21Z
2020-11-03T13:07:29Z,42.805,6.029,13.3002,4.60113,2470.217,2020-11-03T15:08:24Z
2020-11-03T13:10:32Z,42.805,6.029,13.2988,4.60066,2470.18,2020-11-03T15:11:27Z
2020-11-03T13:13:35Z,42.805,6.029,13.2991,4.60045,2470.194,2020-11-03T15:14:31Z
2020-11-03T13:16:38Z,42.805,6.029,13.2993,4.60064,2470.156,2020-11-03T15:17:34Z
2020-11-03T13:19:41Z,42.805,6.029,13.3014,4.60089,2470.194,2020-11-03T15:20:37Z
2020-11-03T13:22:44Z,42.805,6.029,13.3004,4.60086,2470.194,2020-11-03T15:23:40Z
2020-11-03T13:25:47Z,42.805,6.029,13.3013,4.60074,2470.156,2020-11-03T15:26:43Z
2020-11-03T13:28:51Z,42.805,6.029,13.2994,4.60075,2470.156,2020-11-03T15:29:46Z
2020-11-03T13:31:54Z,42.805,6.029,13.2994,4.60041,2470.171,2020-11-03T15:32:49Z
2020-11-03T13:34:57Z,42.805,6.029,13.2996,4.60048,2470.156,2020-11-03T15:35:52Z
2020-11-03T13:38:00Z,42.805,6.029,13.3010,4.60093,2470.156,2020-11-03T15:38:56Z
2020-11-03T13:41:03Z,42.805,6.029,13.3000,4.60151,2470.18,2020-11-03T15:41:59Z
2020-11-03T13:44:06Z,42.805,6.029,13.3009,4.60104,2470.194,2020-11-03T15:45:02Z
2020-11-03T13:47:09Z,42.805,6.029,13.2994,4.60082,2470.156,2020-11-03T15:48:05Z
2020-11-03T13:50:12Z,42.805,6.029,13.3009,4.60117,2470.194,2020-11-03T15:51:08Z
2020-11-03T13:53:16Z,42.805,6.029,13.3007,4.60112,2470.171,2020-11-03T15:54:11Z
2020-11-03T13:56:19Z,42.805,6.029,13.3015,4.60107,2470.147,2020-11-03T15:57:14Z
2020-11-03T13:59:22Z,42.805,6.029,13.3007,4.60049,2470.133,2020-11-03T16:00:17Z
2020-11-03T14:02:25Z,42.805,6.029,13.3028,4.60017,2470.133,2020-11-03T16:03:20Z
2020-11-03T14:05:28Z,42.805,6.029,13.2994,4.60060,2470.171,2020-11-03T16:06:24Z
2020-11-03T14:08:31Z,42.805,6.029,13.2987,4.60046,2470.194,2020-11-03T16:09:27Z
2020-11-03T14:14:37Z,42.805,6.029,13.3010,4.60050,2470.133,2020-11-03T16:15:33Z
2020-11-03T14:17:40Z,42.805,6.029,13.3015,4.60097,2470.156,2020-11-03T16:18:36Z
2020-11-03T14:20:43Z,42.805,6.029,13.3009,4.60122,2470.171,2020-11-03T16:21:39Z
2020-11-03T14:23:47Z,42.805,6.029,13.3017,4.60094,2470.171,2020-11-03T16:24:42Z
2020-11-03T14:26:50Z,42.805,6.029,13.3009,4.60046,2470.156,2020-11-03T16:27:45Z
2020-11-03T14:29:53Z,42.805,6.029,13.3026,4.60079,2470.133,2020-11-03T16:30:48Z
2020-11-03T14:32:56Z,42.805,6.029,13.3031,4.60049,2470.156,2020-11-03T16:33:52Z
2020-11-03T14:35:59Z,42.805,6.029,13.3026,4.60064,2470.147,2020-11-03T16:36:55Z
2020-11-03T14:39:02Z,42.805,6.029,13.3024,4.60026,2470.147,2020-11-03T16:39:58Z
2020-11-03T14:42:05Z,42.805,6.029,13.3034,4.60052,2470.133,2020-11-03T16:43:01Z
2020-11-03T14:45:08Z,42.805,6.029,13.3011,4.60033,2470.133,2020-11-03T16:46:04Z
2020-11-03T14:48:12Z,42.805,6.029,13.3027,4.60025,2470.124,2020-11-03T16:49:07Z
2020-11-03T14:51:15Z,42.805,6.029,13.3042,4.60062,2470.171,2020-11-03T16:52:10Z
2020-11-03T14:54:18Z,42.805,6.029,13.3048,4.60023,2470.133,2020-11-03T16:55:13Z
2020-11-03T14:57:21Z,42.805,6.029,13.3056,4.60029,2470.124,2020-11-03T16:58:16Z
2020-11-03T15:00:24Z,42.805,6.029,13.3014,4.60029,2470.147,2020-11-03T17:01:20Z
2020-11-03T15:03:27Z,42.805,6.029,13.3007,4.60068,2470.171,2020-11-03T17:04:23Z